owner,sensor,date,latitude,longitude,vertical_datum,mass_concentration_of_oxygen_in_sea_water,qcFlag 
SCCF RECON,ioos:station:SCCF:12:1,2012-07-03T15:00:00Z,26.4966,-82.1479,2.64,-9999.0,1111122 
SCCF RECON,ioos:station:SCCF:12:1,2012-07-03T16:00:00Z,26.4966,-82.1479,2.71,-9999.0,1111122 
SCCF RECON,ioos:station:SCCF:12:1,2012-07-03T17:00:00Z,26.4966,-82.1479,2.73,-9999.0,1111122 
SCCF RECON,ioos:station:SCCF:12:1,2012-07-03T18:00:00Z,26.4966,-82.1479,2.675,-9999.0,1111122 
SCCF RECON,ioos:station:SCCF:12:1,2012-07-03T19:00:00Z,26.4966,-82.1479,2.56,-9999.0,1111122 
SCCF RECON,ioos:station:SCCF:12:1,2012-07-03T20:00:00Z,26.4966,-82.1479,2.39,-9999.0,1111122 
SCCF RECON,ioos:station:SCCF:12:1,2012-07-03T21:00:00Z,26.4966,-82.1479,2.223,-9999.0,1111122 
SCCF RECON,ioos:station:SCCF:12:1,2012-07-03T22:00:00Z,26.4966,-82.1479,2.086,-9999.0,1111122 
SCCF RECON,ioos:station:SCCF:12:1,2012-07-03T23:00:00Z,26.4966,-82.1479,1.92,-9999.0,1111122 
SCCF RECON,ioos:station:SCCF:12:1,2012-07-04T00:00:00Z,26.4966,-82.1479,1.8,-9999.0,1111122 
SCCF RECON,ioos:station:SCCF:12:1,2012-07-04T01:00:00Z,26.4966,-82.1479,1.73,-9999.0,1111122 
SCCF RECON,ioos:station:SCCF:12:1,2012-07-04T02:00:00Z,26.4966,-82.1479,1.77,-9999.0,1111122 
SCCF RECON,ioos:station:SCCF:12:1,2012-07-04T03:00:00Z,26.4966,-82.1479,1.0,-9999.0,1111122 
SCCF RECON,ioos:station:SCCF:12:1,2012-07-04T04:00:00Z,26.4966,-82.1479,2.12,-9999.0,1111122 
SCCF RECON,ioos:station:SCCF:12:1,2012-07-04T05:00:00Z,26.4966,-82.1479,2.25,-9999.0,1111122 
SCCF RECON,ioos:station:SCCF:12:1,2012-07-04T06:00:00Z,26.4966,-82.1479,2.35,-9999.0,1111122 
SCCF RECON,ioos:station:SCCF:12:1,2012-07-04T07:00:00Z,26.4966,-82.1479,2.419,-9999.0,1111122 
SCCF RECON,ioos:station:SCCF:12:1,2012-07-04T08:00:00Z,26.4966,-82.1479,2.392,-9999.0,1111122 
SCCF RECON,ioos:station:SCCF:12:1,2012-07-04T09:00:00Z,26.4966,-82.1479,2.3,-9999.0,1111122 
SCCF RECON,ioos:station:SCCF:12:1,2012-07-04T10:00:00Z,26.4966,-82.1479,2.23,-9999.0,1111122 
SCCF RECON,ioos:station:SCCF:12:1,2012-07-04T11:00:00Z,26.4966,-82.1479,2.2,-9999.0,1111122 
SCCF RECON,ioos:station:SCCF:12:1,2012-07-04T12:00:00Z,26.4966,-82.1479,2.229,-9999.0,1111122 
SCCF RECON,ioos:station:SCCF:12:1,2012-07-04T13:00:00Z,26.4966,-82.1479,2.28,-9999.0,1111122 
SCCF RECON,ioos:station:SCCF:12:1,2012-07-04T14:00:00Z,26.4966,-82.1479,2.409,-9999.0,1111122 
SCCF RECON,ioos:station:SCCF:12:1,2012-07-04T15:00:00Z,26.4966,-82.1479,2.56,-9999.0,1111122 
SCCF RECON,ioos:station:SCCF:12:1,2012-07-04T16:00:00Z,26.4966,-82.1479,2.688,-9999.0,1111122 
SCCF RECON,ioos:station:SCCF:12:1,2012-07-04T17:00:00Z,26.4966,-82.1479,2.728,-9999.0,1111122 
SCCF RECON,ioos:station:SCCF:12:1,2012-07-04T18:00:00Z,26.4966,-82.1479,2.714,-9999.0,1111122 
SCCF RECON,ioos:station:SCCF:12:1,2012-07-04T19:00:00Z,26.4966,-82.1479,2.635,-9999.0,1111122 
SCCF RECON,ioos:station:SCCF:12:1,2012-07-04T20:00:00Z,26.4966,-82.1479,2.528,-9999.0,1111122 
SCCF RECON,ioos:station:SCCF:12:1,2012-07-04T21:00:00Z,26.4966,-82.1479,2.381,-9999.0,1111122 
SCCF RECON,ioos:station:SCCF:12:1,2012-07-04T22:00:00Z,26.4966,-82.1479,2.22,-9999.0,1111122 
SCCF RECON,ioos:station:SCCF:12:1,2012-07-04T23:00:00Z,26.4966,-82.1479,2.07,-9999.0,1111122 
SCCF RECON,ioos:station:SCCF:12:1,2012-07-05T00:00:00Z,26.4966,-82.1479,1.944,-9999.0,1111122 
SCCF RECON,ioos:station:SCCF:12:1,2012-07-05T01:00:00Z,26.4966,-82.1479,1.829,-9999.0,1111122 
SCCF RECON,ioos:station:SCCF:12:1,2012-07-05T02:00:00Z,26.4966,-82.1479,1.771,-9999.0,1111122 
SCCF RECON,ioos:station:SCCF:12:1,2012-07-05T03:00:00Z,26.4966,-82.1479,1.86,-9999.0,1111122 
SCCF RECON,ioos:station:SCCF:12:1,2012-07-05T04:00:00Z,26.4966,-82.1479,2.056,-9999.0,1111122 
SCCF RECON,ioos:station:SCCF:12:1,2012-07-05T05:00:00Z,26.4966,-82.1479,2.19,-9999.0,1111122 
SCCF RECON,ioos:station:SCCF:12:1,2012-07-05T06:00:00Z,26.4966,-82.1479,2.307,-9999.0,1111122 
SCCF RECON,ioos:station:SCCF:12:1,2012-07-05T07:00:00Z,26.4966,-82.1479,2.39,-9999.0,1111122 
SCCF RECON,ioos:station:SCCF:12:1,2012-07-05T08:00:00Z,26.4966,-82.1479,2.4,-9999.0,1111122 
SCCF RECON,ioos:station:SCCF:12:1,2012-07-05T09:00:00Z,26.4966,-82.1479,2.37,-9999.0,1111122 
SCCF RECON,ioos:station:SCCF:12:1,2012-07-05T10:00:00Z,26.4966,-82.1479,2.3,-9999.0,1111122 
SCCF RECON,ioos:station:SCCF:12:1,2012-07-05T11:00:00Z,26.4966,-82.1479,2.23,-9999.0,1111122 
SCCF RECON,ioos:station:SCCF:12:1,2012-07-05T12:00:00Z,26.4966,-82.1479,2.19,-9999.0,1111122 
SCCF RECON,ioos:station:SCCF:12:1,2012-07-05T13:00:00Z,26.4966,-82.1479,2.2,5.44,1111122 
SCCF RECON,ioos:station:SCCF:12:1,2012-07-05T14:00:00Z,26.4966,-82.1479,2.27,5.26,1111122 
SCCF RECON,ioos:station:SCCF:12:1,2012-07-05T15:00:00Z,26.4966,-82.1479,2.39,5.54,1111122 
SCCF RECON,ioos:station:SCCF:12:1,2012-07-05T16:00:00Z,26.4966,-82.1479,2.534,5.4,1111122 
SCCF RECON,ioos:station:SCCF:12:1,2012-07-05T17:00:00Z,26.4966,-82.1479,2.639,5.34,1111122 
SCCF RECON,ioos:station:SCCF:12:1,2012-07-05T18:00:00Z,26.4966,-82.1479,2.683,5.62,1111122 
SCCF RECON,ioos:station:SCCF:12:1,2012-07-05T19:00:00Z,26.4966,-82.1479,2.67,5.78,1111122 
SCCF RECON,ioos:station:SCCF:12:1,2012-07-05T20:00:00Z,26.4966,-82.1479,2.591,5.2,1111122 
SCCF RECON,ioos:station:SCCF:12:1,2012-07-05T21:00:00Z,26.4966,-82.1479,2.519,6.77,1111122 
SCCF RECON,ioos:station:SCCF:12:1,2012-07-05T22:00:00Z,26.4966,-82.1479,2.351,6.5,1111122 
SCCF RECON,ioos:station:SCCF:12:1,2012-07-05T23:00:00Z,26.4966,-82.1479,2.19,6.42,1111122 
SCCF RECON,ioos:station:SCCF:12:1,2012-07-06T00:00:00Z,26.4966,-82.1479,2.051,6.47,1111122 
SCCF RECON,ioos:station:SCCF:12:1,2012-07-06T01:00:00Z,26.4966,-82.1479,1.93,6.55,1111122 
SCCF RECON,ioos:station:SCCF:12:1,2012-07-06T02:00:00Z,26.4966,-82.1479,1.84,6.15,1111122 
SCCF RECON,ioos:station:SCCF:12:1,2012-07-06T03:00:00Z,26.4966,-82.1479,1.828,6.0,1111122 
SCCF RECON,ioos:station:SCCF:12:1,2012-07-06T04:00:00Z,26.4966,-82.1479,1.968,5.76,1111122 
SCCF RECON,ioos:station:SCCF:12:1,2012-07-06T05:00:00Z,26.4966,-82.1479,2.15,5.45,1111122 
SCCF RECON,ioos:station:SCCF:12:1,2012-07-06T06:00:00Z,26.4966,-82.1479,2.3,5.34,1111122 
SCCF RECON,ioos:station:SCCF:12:1,2012-07-06T07:00:00Z,26.4966,-82.1479,2.38,5.38,1111122 
SCCF RECON,ioos:station:SCCF:12:1,2012-07-06T08:00:00Z,26.4966,-82.1479,2.42,5.57,1111122 
SCCF RECON,ioos:station:SCCF:12:1,2012-07-06T09:00:00Z,26.4966,-82.1479,2.41,5.72,1111122 
SCCF RECON,ioos:station:SCCF:12:1,2012-07-06T10:00:00Z,26.4966,-82.1479,2.33,5.48,1111122 
SCCF RECON,ioos:station:SCCF:12:1,2012-07-06T11:00:00Z,26.4966,-82.1479,2.252,5.2,1111122 
SCCF RECON,ioos:station:SCCF:12:1,2012-07-06T12:00:00Z,26.4966,-82.1479,2.18,5.02,1111122 
SCCF RECON,ioos:station:SCCF:12:1,2012-07-06T13:00:00Z,26.4966,-82.1479,2.131,4.93,1111122 
SCCF RECON,ioos:station:SCCF:12:1,2012-07-06T14:00:00Z,26.4966,-82.1479,2.121,5.03,1111122 
SCCF RECON,ioos:station:SCCF:12:1,2012-07-06T15:00:00Z,26.4966,-82.1479,2.198,5.25,1111122 
SCCF RECON,ioos:station:SCCF:12:1,2012-07-06T16:00:00Z,26.4966,-82.1479,2.322,5.41,1111122 
SCCF RECON,ioos:station:SCCF:12:1,2012-07-06T17:00:00Z,26.4966,-82.1479,2.471,5.35,1111122 
SCCF RECON,ioos:station:SCCF:12:1,2012-07-06T18:00:00Z,26.4966,-82.1479,2.578,5.29,1111122 
SCCF RECON,ioos:station:SCCF:12:1,2012-07-06T19:00:00Z,26.4966,-82.1479,2.616,6.03,1111122 
SCCF RECON,ioos:station:SCCF:12:1,2012-07-06T20:00:00Z,26.4966,-82.1479,2.604,5.71,1111122 
SCCF RECON,ioos:station:SCCF:12:1,2012-07-06T21:00:00Z,26.4966,-82.1479,2.521,6.72,1111122 
SCCF RECON,ioos:station:SCCF:12:1,2012-07-06T22:00:00Z,26.4966,-82.1479,2.372,6.1,1111122 
SCCF RECON,ioos:station:SCCF:12:1,2012-07-06T23:00:00Z,26.4966,-82.1479,2.24,6.01,1111122 
SCCF RECON,ioos:station:SCCF:12:1,2012-07-07T00:00:00Z,26.4966,-82.1479,2.11,5.79,1111122 
SCCF RECON,ioos:station:SCCF:12:1,2012-07-07T01:00:00Z,26.4966,-82.1479,2.0,5.74,1111122 
SCCF RECON,ioos:station:SCCF:12:1,2012-07-07T02:00:00Z,26.4966,-82.1479,1.911,5.72,1111122 
SCCF RECON,ioos:station:SCCF:12:1,2012-07-07T03:00:00Z,26.4966,-82.1479,1.842,5.83,1111122 
SCCF RECON,ioos:station:SCCF:12:1,2012-07-07T04:00:00Z,26.4966,-82.1479,1.89,5.79,1111122 
SCCF RECON,ioos:station:SCCF:12:1,2012-07-07T05:00:00Z,26.4966,-82.1479,2.046,5.5,1111122 
SCCF RECON,ioos:station:SCCF:12:1,2012-07-07T06:00:00Z,26.4966,-82.1479,2.23,5.3,1111122 
SCCF RECON,ioos:station:SCCF:12:1,2012-07-07T07:00:00Z,26.4966,-82.1479,2.34,5.27,1111122 
SCCF RECON,ioos:station:SCCF:12:1,2012-07-07T08:00:00Z,26.4966,-82.1479,2.4,5.38,1111122 
SCCF RECON,ioos:station:SCCF:12:1,2012-07-07T09:00:00Z,26.4966,-82.1479,2.41,5.44,1111122 
SCCF RECON,ioos:station:SCCF:12:1,2012-07-07T10:00:00Z,26.4966,-82.1479,2.364,5.19,1111122 
SCCF RECON,ioos:station:SCCF:12:1,2012-07-07T11:00:00Z,26.4966,-82.1479,2.28,4.96,1111122 
SCCF RECON,ioos:station:SCCF:12:1,2012-07-07T12:00:00Z,26.4966,-82.1479,2.209,4.89,1111122 
SCCF RECON,ioos:station:SCCF:12:1,2012-07-07T13:00:00Z,26.4966,-82.1479,2.16,4.78,1111122 
SCCF RECON,ioos:station:SCCF:12:1,2012-07-07T14:00:00Z,26.4966,-82.1479,2.124,4.74,1111122 
SCCF RECON,ioos:station:SCCF:12:1,2012-07-07T15:00:00Z,26.4966,-82.1479,2.114,5.19,1111122 
SCCF RECON,ioos:station:SCCF:12:1,2012-07-07T16:00:00Z,26.4966,-82.1479,2.178,5.4,1111122 
SCCF RECON,ioos:station:SCCF:12:1,2012-07-07T17:00:00Z,26.4966,-82.1479,2.309,5.47,1111122 
SCCF RECON,ioos:station:SCCF:12:1,2012-07-07T18:00:00Z,26.4966,-82.1479,2.441,5.46,1111122 
SCCF RECON,ioos:station:SCCF:12:1,2012-07-07T19:00:00Z,26.4966,-82.1479,2.53,5.67,1111122 
SCCF RECON,ioos:station:SCCF:12:1,2012-07-07T20:00:00Z,26.4966,-82.1479,2.553,5.27,1111122 
SCCF RECON,ioos:station:SCCF:12:1,2012-07-07T21:00:00Z,26.4966,-82.1479,2.51,6.3,1111122 
SCCF RECON,ioos:station:SCCF:12:1,2012-07-07T22:00:00Z,26.4966,-82.1479,2.425,6.56,1111122 
SCCF RECON,ioos:station:SCCF:12:1,2012-07-07T23:00:00Z,26.4966,-82.1479,2.398,6.23,1111122 
SCCF RECON,ioos:station:SCCF:12:1,2012-07-08T00:00:00Z,26.4966,-82.1479,2.24,6.06,1111122 
SCCF RECON,ioos:station:SCCF:12:1,2012-07-08T01:00:00Z,26.4966,-82.1479,2.12,6.53,1111122 
SCCF RECON,ioos:station:SCCF:12:1,2012-07-08T02:00:00Z,26.4966,-82.1479,2.04,6.02,1111122 
SCCF RECON,ioos:station:SCCF:12:1,2012-07-08T03:00:00Z,26.4966,-82.1479,1.97,5.6,1111122 
SCCF RECON,ioos:station:SCCF:12:1,2012-07-08T04:00:00Z,26.4966,-82.1479,1.94,5.87,1111122 
SCCF RECON,ioos:station:SCCF:12:1,2012-07-08T05:00:00Z,26.4966,-82.1479,2.047,5.82,1111122 
SCCF RECON,ioos:station:SCCF:12:1,2012-07-08T06:00:00Z,26.4966,-82.1479,2.21,5.94,1111122 
SCCF RECON,ioos:station:SCCF:12:1,2012-07-08T07:00:00Z,26.4966,-82.1479,2.35,5.72,1111122 
SCCF RECON,ioos:station:SCCF:12:1,2012-07-08T08:00:00Z,26.4966,-82.1479,2.429,5.61,1111122 
SCCF RECON,ioos:station:SCCF:12:1,2012-07-08T09:00:00Z,26.4966,-82.1479,2.46,5.44,1111122 
SCCF RECON,ioos:station:SCCF:12:1,2012-07-08T10:00:00Z,26.4966,-82.1479,2.44,5.64,1111122 
SCCF RECON,ioos:station:SCCF:12:1,2012-07-08T11:00:00Z,26.4966,-82.1479,2.38,5.56,1111122 
SCCF RECON,ioos:station:SCCF:12:1,2012-07-08T12:00:00Z,26.4966,-82.1479,2.295,5.36,1111122 
SCCF RECON,ioos:station:SCCF:12:1,2012-07-08T13:00:00Z,26.4966,-82.1479,2.2,5.21,1111122 
SCCF RECON,ioos:station:SCCF:12:1,2012-07-08T14:00:00Z,26.4966,-82.1479,2.122,5.18,1111122 
SCCF RECON,ioos:station:SCCF:12:1,2012-07-08T15:00:00Z,26.4966,-82.1479,2.071,5.08,1111122 
SCCF RECON,ioos:station:SCCF:12:1,2012-07-08T16:00:00Z,26.4966,-82.1479,2.05,5.42,1111122 
SCCF RECON,ioos:station:SCCF:12:1,2012-07-08T17:00:00Z,26.4966,-82.1479,2.099,5.63,1111122 
SCCF RECON,ioos:station:SCCF:12:1,2012-07-08T18:00:00Z,26.4966,-82.1479,2.215,5.66,1111122 
SCCF RECON,ioos:station:SCCF:12:1,2012-07-08T19:00:00Z,26.4966,-82.1479,2.339,5.56,1111122 
SCCF RECON,ioos:station:SCCF:12:1,2012-07-08T20:00:00Z,26.4966,-82.1479,2.398,5.77,1111122 
SCCF RECON,ioos:station:SCCF:12:1,2012-07-08T21:00:00Z,26.4966,-82.1479,2.385,5.77,1111122 
SCCF RECON,ioos:station:SCCF:12:1,2012-07-08T22:00:00Z,26.4966,-82.1479,2.341,6.46,1111122 
SCCF RECON,ioos:station:SCCF:12:1,2012-07-08T23:00:00Z,26.4966,-82.1479,2.284,6.74,1111122 
SCCF RECON,ioos:station:SCCF:12:1,2012-07-09T00:00:00Z,26.4966,-82.1479,2.262,6.32,1111122 
SCCF RECON,ioos:station:SCCF:12:1,2012-07-09T01:00:00Z,26.4966,-82.1479,2.2,6.1,1111122 
SCCF RECON,ioos:station:SCCF:12:1,2012-07-09T02:00:00Z,26.4966,-82.1479,2.08,6.09,1111122 
SCCF RECON,ioos:station:SCCF:12:1,2012-07-09T03:00:00Z,26.4966,-82.1479,2.0,5.96,1111122 
SCCF RECON,ioos:station:SCCF:12:1,2012-07-09T04:00:00Z,26.4966,-82.1479,1.94,5.95,1111122 
SCCF RECON,ioos:station:SCCF:12:1,2012-07-09T05:00:00Z,26.4966,-82.1479,1.95,5.82,1111122 
SCCF RECON,ioos:station:SCCF:12:1,2012-07-09T06:00:00Z,26.4966,-82.1479,2.03,5.72,1111122 
SCCF RECON,ioos:station:SCCF:12:1,2012-07-09T07:00:00Z,26.4966,-82.1479,2.21,5.42,1111122 
SCCF RECON,ioos:station:SCCF:12:1,2012-07-09T08:00:00Z,26.4966,-82.1479,2.35,5.54,1111122 
SCCF RECON,ioos:station:SCCF:12:1,2012-07-09T09:00:00Z,26.4966,-82.1479,2.43,5.46,1111122 
SCCF RECON,ioos:station:SCCF:12:1,2012-07-09T10:00:00Z,26.4966,-82.1479,2.46,5.38,1111122 
SCCF RECON,ioos:station:SCCF:12:1,2012-07-09T11:00:00Z,26.4966,-82.1479,2.443,5.09,1111122 
SCCF RECON,ioos:station:SCCF:12:1,2012-07-09T12:00:00Z,26.4966,-82.1479,2.37,5.25,1111122 
SCCF RECON,ioos:station:SCCF:12:1,2012-07-09T13:00:00Z,26.4966,-82.1479,2.26,5.23,1111122 
SCCF RECON,ioos:station:SCCF:12:1,2012-07-09T14:00:00Z,26.4966,-82.1479,2.17,5.3,1111122 
SCCF RECON,ioos:station:SCCF:12:1,2012-07-09T15:00:00Z,26.4966,-82.1479,2.103,5.22,1111122 
SCCF RECON,ioos:station:SCCF:12:1,2012-07-09T16:00:00Z,26.4966,-82.1479,2.06,5.2,1111122 
SCCF RECON,ioos:station:SCCF:12:1,2012-07-09T17:00:00Z,26.4966,-82.1479,2.046,5.38,1111122 
SCCF RECON,ioos:station:SCCF:12:1,2012-07-09T18:00:00Z,26.4966,-82.1479,2.081,5.57,1111122 
SCCF RECON,ioos:station:SCCF:12:1,2012-07-09T19:00:00Z,26.4966,-82.1479,2.18,5.92,1111122 
SCCF RECON,ioos:station:SCCF:12:1,2012-07-09T20:00:00Z,26.4966,-82.1479,2.279,5.9,1111122 
SCCF RECON,ioos:station:SCCF:12:1,2012-07-09T21:00:00Z,26.4966,-82.1479,2.329,6.0,1111122 
SCCF RECON,ioos:station:SCCF:12:1,2012-07-09T22:00:00Z,26.4966,-82.1479,2.32,5.88,1111122 
SCCF RECON,ioos:station:SCCF:12:1,2012-07-09T23:00:00Z,26.4966,-82.1479,2.31,5.9,1111122 
SCCF RECON,ioos:station:SCCF:12:1,2012-07-10T00:00:00Z,26.4966,-82.1479,2.29,6.47,1111122 
SCCF RECON,ioos:station:SCCF:12:1,2012-07-10T01:00:00Z,26.4966,-82.1479,2.25,6.63,1111122 
SCCF RECON,ioos:station:SCCF:12:1,2012-07-10T02:00:00Z,26.4966,-82.1479,2.18,6.08,1111122 
SCCF RECON,ioos:station:SCCF:12:1,2012-07-10T03:00:00Z,26.4966,-82.1479,2.1,5.64,1111122 
SCCF RECON,ioos:station:SCCF:12:1,2012-07-10T04:00:00Z,26.4966,-82.1479,2.051,5.33,1111122 
SCCF RECON,ioos:station:SCCF:12:1,2012-07-10T05:00:00Z,26.4966,-82.1479,2.05,5.8,1111122 
SCCF RECON,ioos:station:SCCF:12:1,2012-07-10T06:00:00Z,26.4966,-82.1479,2.114,5.82,1111122 
SCCF RECON,ioos:station:SCCF:12:1,2012-07-10T07:00:00Z,26.4966,-82.1479,2.201,5.63,1111122 
SCCF RECON,ioos:station:SCCF:12:1,2012-07-10T08:00:00Z,26.4966,-82.1479,2.286,5.64,1111122 
SCCF RECON,ioos:station:SCCF:12:1,2012-07-10T09:00:00Z,26.4966,-82.1479,2.361,5.21,1111122 
SCCF RECON,ioos:station:SCCF:12:1,2012-07-10T10:00:00Z,26.4966,-82.1479,2.4,5.53,1111122 
SCCF RECON,ioos:station:SCCF:12:1,2012-07-10T11:00:00Z,26.4966,-82.1479,2.42,5.34,1111122 
SCCF RECON,ioos:station:SCCF:12:1,2012-07-10T12:00:00Z,26.4966,-82.1479,2.38,5.19,1111122 
SCCF RECON,ioos:station:SCCF:12:1,2012-07-10T13:00:00Z,26.4966,-82.1479,2.3,5.16,1111122 
SCCF RECON,ioos:station:SCCF:12:1,2012-07-10T14:00:00Z,26.4966,-82.1479,2.216,5.14,1111122 
SCCF RECON,ioos:station:SCCF:12:1,2012-07-10T15:00:00Z,26.4966,-82.1479,2.15,5.46,1111122 
SCCF RECON,ioos:station:SCCF:12:1,2012-07-10T16:00:00Z,26.4966,-82.1479,2.048,5.62,1111122 
SCCF RECON,ioos:station:SCCF:12:1,2012-07-10T17:00:00Z,26.4966,-82.1479,1.98,5.81,1111122 
SCCF RECON,ioos:station:SCCF:12:1,2012-07-10T18:00:00Z,26.4966,-82.1479,1.92,6.09,1111122 
SCCF RECON,ioos:station:SCCF:12:1,2012-07-10T19:00:00Z,26.4966,-82.1479,1.966,5.45,1111122 
SCCF RECON,ioos:station:SCCF:12:1,2012-07-10T20:00:00Z,26.4966,-82.1479,2.083,6.03,1111122 
SCCF RECON,ioos:station:SCCF:12:1,2012-07-10T21:00:00Z,26.4966,-82.1479,2.2,6.34,1111122 
SCCF RECON,ioos:station:SCCF:12:1,2012-07-10T22:00:00Z,26.4966,-82.1479,2.292,6.3,1111122 
SCCF RECON,ioos:station:SCCF:12:1,2012-07-10T23:00:00Z,26.4966,-82.1479,2.341,6.2,1111122 
SCCF RECON,ioos:station:SCCF:12:1,2012-07-11T00:00:00Z,26.4966,-82.1479,2.25,5.78,1111122 
SCCF RECON,ioos:station:SCCF:12:1,2012-07-11T01:00:00Z,26.4966,-82.1479,2.228,6.23,1111122 
SCCF RECON,ioos:station:SCCF:12:1,2012-07-11T02:00:00Z,26.4966,-82.1479,2.185,6.01,1111122 
SCCF RECON,ioos:station:SCCF:12:1,2012-07-11T03:00:00Z,26.4966,-82.1479,2.142,5.8,1111122 
SCCF RECON,ioos:station:SCCF:12:1,2012-07-11T04:00:00Z,26.4966,-82.1479,2.091,5.67,1111122 
SCCF RECON,ioos:station:SCCF:12:1,2012-07-11T05:00:00Z,26.4966,-82.1479,2.071,5.38,1111122 
SCCF RECON,ioos:station:SCCF:12:1,2012-07-11T06:00:00Z,26.4966,-82.1479,2.101,5.36,1111122 
SCCF RECON,ioos:station:SCCF:12:1,2012-07-11T07:00:00Z,26.4966,-82.1479,2.18,5.52,1111122 
SCCF RECON,ioos:station:SCCF:12:1,2012-07-11T08:00:00Z,26.4966,-82.1479,2.25,5.45,1111122 
SCCF RECON,ioos:station:SCCF:12:1,2012-07-11T09:00:00Z,26.4966,-82.1479,2.328,5.38,1111122 
SCCF RECON,ioos:station:SCCF:12:1,2012-07-11T10:00:00Z,26.4966,-82.1479,2.398,5.21,1111122 
SCCF RECON,ioos:station:SCCF:12:1,2012-07-11T11:00:00Z,26.4966,-82.1479,2.442,5.23,1111122 
SCCF RECON,ioos:station:SCCF:12:1,2012-07-11T12:00:00Z,26.4966,-82.1479,2.447,5.13,1111122 
SCCF RECON,ioos:station:SCCF:12:1,2012-07-11T13:00:00Z,26.4966,-82.1479,2.36,5.28,1111122 
SCCF RECON,ioos:station:SCCF:12:1,2012-07-11T14:00:00Z,26.4966,-82.1479,2.297,5.27,1111122 
SCCF RECON,ioos:station:SCCF:12:1,2012-07-11T15:00:00Z,26.4966,-82.1479,2.19,5.25,1111122 
SCCF RECON,ioos:station:SCCF:12:1,2012-07-11T16:00:00Z,26.4966,-82.1479,2.093,5.32,1111122 
SCCF RECON,ioos:station:SCCF:12:1,2012-07-11T17:00:00Z,26.4966,-82.1479,1.998,5.46,1111122 
SCCF RECON,ioos:station:SCCF:12:1,2012-07-11T18:00:00Z,26.4966,-82.1479,1.93,5.85,1111122 
SCCF RECON,ioos:station:SCCF:12:1,2012-07-11T19:00:00Z,26.4966,-82.1479,1.92,6.17,1111122 
SCCF RECON,ioos:station:SCCF:12:1,2012-07-11T20:00:00Z,26.4966,-82.1479,1.99,5.95,1111122 
SCCF RECON,ioos:station:SCCF:12:1,2012-07-11T21:00:00Z,26.4966,-82.1479,2.05,5.64,1111122 
SCCF RECON,ioos:station:SCCF:12:1,2012-07-11T22:00:00Z,26.4966,-82.1479,2.11,5.72,1111122 
SCCF RECON,ioos:station:SCCF:12:1,2012-07-11T23:00:00Z,26.4966,-82.1479,2.17,6.13,1111122 
SCCF RECON,ioos:station:SCCF:12:1,2012-07-12T00:00:00Z,26.4966,-82.1479,2.21,5.52,1111122 
SCCF RECON,ioos:station:SCCF:12:1,2012-07-12T01:00:00Z,26.4966,-82.1479,2.22,5.15,1111122 
SCCF RECON,ioos:station:SCCF:12:1,2012-07-12T02:00:00Z,26.4966,-82.1479,2.22,5.86,1111122 
SCCF RECON,ioos:station:SCCF:12:1,2012-07-12T03:00:00Z,26.4966,-82.1479,2.14,6.32,1111122 
SCCF RECON,ioos:station:SCCF:12:1,2012-07-12T04:00:00Z,26.4966,-82.1479,2.18,6.29,1111122 
SCCF RECON,ioos:station:SCCF:12:1,2012-07-12T05:00:00Z,26.4966,-82.1479,2.249,6.56,1111122 
SCCF RECON,ioos:station:SCCF:12:1,2012-07-12T06:00:00Z,26.4966,-82.1479,2.2,6.19,1111122 
SCCF RECON,ioos:station:SCCF:12:1,2012-07-12T07:00:00Z,26.4966,-82.1479,2.151,5.95,1111122 
SCCF RECON,ioos:station:SCCF:12:1,2012-07-12T08:00:00Z,26.4966,-82.1479,2.18,5.76,1111122 
SCCF RECON,ioos:station:SCCF:12:1,2012-07-12T09:00:00Z,26.4966,-82.1479,2.248,5.65,1111122 
SCCF RECON,ioos:station:SCCF:12:1,2012-07-12T10:00:00Z,26.4966,-82.1479,2.34,5.55,1111122 
SCCF RECON,ioos:station:SCCF:12:1,2012-07-12T11:00:00Z,26.4966,-82.1479,2.4,5.15,1111122 
SCCF RECON,ioos:station:SCCF:12:1,2012-07-12T12:00:00Z,26.4966,-82.1479,2.43,5.59,1111122 
SCCF RECON,ioos:station:SCCF:12:1,2012-07-12T13:00:00Z,26.4966,-82.1479,2.421,5.54,1111122 
SCCF RECON,ioos:station:SCCF:12:1,2012-07-12T14:00:00Z,26.4966,-82.1479,2.4,4.73,1111122 
SCCF RECON,ioos:station:SCCF:12:1,2012-07-12T15:00:00Z,26.4966,-82.1479,2.332,5.64,1111122 
SCCF RECON,ioos:station:SCCF:12:1,2012-07-12T16:00:00Z,26.4966,-82.1479,2.23,5.75,1111122 
SCCF RECON,ioos:station:SCCF:12:1,2012-07-12T17:00:00Z,26.4966,-82.1479,2.13,5.93,1111122 
SCCF RECON,ioos:station:SCCF:12:1,2012-07-12T18:00:00Z,26.4966,-82.1479,2.04,5.37,1111122 
SCCF RECON,ioos:station:SCCF:12:1,2012-07-12T19:00:00Z,26.4966,-82.1479,1.95,6.27,1111122 
SCCF RECON,ioos:station:SCCF:12:1,2012-07-12T20:00:00Z,26.4966,-82.1479,1.887,6.17,1111122 
SCCF RECON,ioos:station:SCCF:12:1,2012-07-12T21:00:00Z,26.4966,-82.1479,1.889,6.1,1111122 
SCCF RECON,ioos:station:SCCF:12:1,2012-07-12T22:00:00Z,26.4966,-82.1479,1.99,6.14,1111122 
SCCF RECON,ioos:station:SCCF:12:1,2012-07-12T23:00:00Z,26.4966,-82.1479,2.08,6.03,1111122 
SCCF RECON,ioos:station:SCCF:12:1,2012-07-13T00:00:00Z,26.4966,-82.1479,2.15,5.96,1111122 
SCCF RECON,ioos:station:SCCF:12:1,2012-07-13T01:00:00Z,26.4966,-82.1479,2.2,6.51,1111122 
SCCF RECON,ioos:station:SCCF:12:1,2012-07-13T02:00:00Z,26.4966,-82.1479,2.23,6.77,1111122 
SCCF RECON,ioos:station:SCCF:12:1,2012-07-13T03:00:00Z,26.4966,-82.1479,2.27,6.59,1111122 
SCCF RECON,ioos:station:SCCF:12:1,2012-07-13T04:00:00Z,26.4966,-82.1479,2.3,6.98,1111122 
SCCF RECON,ioos:station:SCCF:12:1,2012-07-13T05:00:00Z,26.4966,-82.1479,2.3,6.17,1111122 
SCCF RECON,ioos:station:SCCF:12:1,2012-07-13T06:00:00Z,26.4966,-82.1479,2.282,5.8,1111122 
SCCF RECON,ioos:station:SCCF:12:1,2012-07-13T07:00:00Z,26.4966,-82.1479,2.21,5.29,1111122 
SCCF RECON,ioos:station:SCCF:12:1,2012-07-13T08:00:00Z,26.4966,-82.1479,2.2,5.21,1111122 
SCCF RECON,ioos:station:SCCF:12:1,2012-07-13T09:00:00Z,26.4966,-82.1479,2.249,5.28,1111122 
SCCF RECON,ioos:station:SCCF:12:1,2012-07-13T10:00:00Z,26.4966,-82.1479,2.33,5.23,1111122 
SCCF RECON,ioos:station:SCCF:12:1,2012-07-13T11:00:00Z,26.4966,-82.1479,2.41,5.17,1111122 
SCCF RECON,ioos:station:SCCF:12:1,2012-07-13T12:00:00Z,26.4966,-82.1479,2.44,5.13,1111122 
SCCF RECON,ioos:station:SCCF:12:1,2012-07-13T13:00:00Z,26.4966,-82.1479,2.453,4.9,1111122 
SCCF RECON,ioos:station:SCCF:12:1,2012-07-13T14:00:00Z,26.4966,-82.1479,2.44,5.26,1111122 
SCCF RECON,ioos:station:SCCF:12:1,2012-07-13T15:00:00Z,26.4966,-82.1479,2.404,5.38,1111122 
SCCF RECON,ioos:station:SCCF:12:1,2012-07-13T16:00:00Z,26.4966,-82.1479,2.309,5.45,1111122 
SCCF RECON,ioos:station:SCCF:12:1,2012-07-13T17:00:00Z,26.4966,-82.1479,2.188,5.08,1111122 
SCCF RECON,ioos:station:SCCF:12:1,2012-07-13T18:00:00Z,26.4966,-82.1479,2.071,6.01,1111122 
SCCF RECON,ioos:station:SCCF:12:1,2012-07-13T19:00:00Z,26.4966,-82.1479,1.957,6.57,1111122 
SCCF RECON,ioos:station:SCCF:12:1,2012-07-13T20:00:00Z,26.4966,-82.1479,1.882,6.18,1111122 
SCCF RECON,ioos:station:SCCF:12:1,2012-07-13T21:00:00Z,26.4966,-82.1479,1.88,6.03,1111122 
SCCF RECON,ioos:station:SCCF:12:1,2012-07-13T22:00:00Z,26.4966,-82.1479,1.85,5.68,1111122 
SCCF RECON,ioos:station:SCCF:12:1,2012-07-13T23:00:00Z,26.4966,-82.1479,1.93,5.9,1111122 
SCCF RECON,ioos:station:SCCF:12:1,2012-07-14T00:00:00Z,26.4966,-82.1479,2.04,5.93,1111122 
SCCF RECON,ioos:station:SCCF:12:1,2012-07-14T01:00:00Z,26.4966,-82.1479,2.13,5.83,1111122 
SCCF RECON,ioos:station:SCCF:12:1,2012-07-14T02:00:00Z,26.4966,-82.1479,2.21,6.02,1111122 
SCCF RECON,ioos:station:SCCF:12:1,2012-07-14T03:00:00Z,26.4966,-82.1479,2.25,5.81,1111122 
SCCF RECON,ioos:station:SCCF:12:1,2012-07-14T04:00:00Z,26.4966,-82.1479,2.25,5.73,1111122 
SCCF RECON,ioos:station:SCCF:12:1,2012-07-14T05:00:00Z,26.4966,-82.1479,2.21,6.16,1111122 
SCCF RECON,ioos:station:SCCF:12:1,2012-07-14T06:00:00Z,26.4966,-82.1479,2.185,5.98,1111122 
SCCF RECON,ioos:station:SCCF:12:1,2012-07-14T07:00:00Z,26.4966,-82.1479,2.174,5.67,1111122 
SCCF RECON,ioos:station:SCCF:12:1,2012-07-14T08:00:00Z,26.4966,-82.1479,2.16,5.39,1111122 
SCCF RECON,ioos:station:SCCF:12:1,2012-07-14T09:00:00Z,26.4966,-82.1479,2.219,5.16,1111122 
SCCF RECON,ioos:station:SCCF:12:1,2012-07-14T10:00:00Z,26.4966,-82.1479,2.289,5.27,1111122 